(287469) = 2003 AC37 = 2007 TK166

Discovered at Socorro on 2003-01-07 by LINEAR.

Orbit

Orbit type: Main Belt

Note: WebGL enabled browser required.

epoch2023-09-13.0
epoch JD2460200.5
perihelion date2019-08-31.59668
perihelion JD2458727.09668
argument of perihelion (°)336.84468
ascending node (°)114.78253
inclination (°)11.99732
eccentricity0.2074651
perihelion distance (AU)2.4964712
Tisserand w.r.t. Jupiter3.1
ΔV w.r.t. Earth (km/sec)10.6
semimajor axis (AU)3.1499826
mean anomaly (°)259.75460
mean daily motion (°/day)0.17629570
aphelion distance (AU)3.803
period (years)5.59
P-vector [x]-0.03619438
P-vector [y]0.94632238
P-vector [z]0.32119142
Q-vector [x]-0.98136322
Q-vector [y]-0.09435288
Q-vector [z]0.16740299
absolute magnitude16.01
phase slope0.15
uncertainty0
referenceMPO 779064
observations used300
oppositions13
arc length (days)7585
first opposition used2003
last opposition used2023
residual rms (arc-secs)0.84
perturbers coarse indicatorM-v
perturbers precise indicator003Ek
first observation date used2003-01-07.0
last observation date used2023-10-14.0
computer nameMPCLINUX
JD of orbit computation2456700.369475
perihelion JD uncertainty (days)1.8862E-04
argument of perihelion uncertainty (°)6.5649E-05
ascending node uncertainty (°)4.8357E-05
inclination uncertainty (°)1.0813E-05
eccentricity uncertainty 1.1767E-07
perihelion distance uncertainty (AU)3.8529E-07
Minimum Orbit Intersection Distances (in AU)
for orbit epoch: 2460200.5, reference: E2023-U02
Mercury2.19139
Venus1.78157
Earth1.51668
Mars0.90657
Jupiter1.41118
Saturn6.29305
Uranus15.3543
Neptune26.5521

Observations

308 total observations over interval: 2003 01 07.30360 – 2023 10 14.258904
These data are available for download (format description).

Date (UT) J2000 RA J2000 Dec Magn Location Ref
2003 01 07.30360 07 05 46.13 +19 26 06.6 19.1   704 – Lincoln Laboratory ETS, New Mexico MPS 70245
2003 01 07.32130 07 05 45.20 +19 26 13.8 19.2   704 – Lincoln Laboratory ETS, New Mexico MPS 70245
2003 01 07.33666 07 05 44.37 +19 26 20.8 19.2   704 – Lincoln Laboratory ETS, New Mexico MPS 70245
2003 01 08.31418 07 04 52.96 +19 33 07.7 19.1   704 – Lincoln Laboratory ETS, New Mexico MPS 70245
2003 01 08.34351 07 04 51.35 +19 33 19.4 19.6   704 – Lincoln Laboratory ETS, New Mexico MPS 70245
2003 01 08.35814 07 04 50.49 +19 33 25.2 19.0   704 – Lincoln Laboratory ETS, New Mexico MPS 70245
2003 01 08.37284 07 04 49.73 +19 33 31.5 19.7   704 – Lincoln Laboratory ETS, New Mexico MPS 70245
2003 01 10.29498 07 03 09.23 +19 46 52.9 18.9   704 – Lincoln Laboratory ETS, New Mexico MPS 71773
2003 01 10.30458 07 03 08.67 +19 46 57.4   704 – Lincoln Laboratory ETS, New Mexico MPS 407558
2003 01 10.31023 07 03 08.36 +19 46 58.9 19.2   704 – Lincoln Laboratory ETS, New Mexico MPS 71773
2003 01 10.32083 07 03 07.69 +19 47 03.6   704 – Lincoln Laboratory ETS, New Mexico MPS 407558
2003 01 10.32528 07 03 07.64 +19 47 06.0 19.1   704 – Lincoln Laboratory ETS, New Mexico MPS 71773
2003 01 10.34042 07 03 06.72 +19 47 11.2 19.0   704 – Lincoln Laboratory ETS, New Mexico MPS 71773
2004 03 30.41150 14 12 20.32 +04 39 49.0 21.2 V 691 – Steward Observatory, Kitt Peak-Spacewatch MPS 272374
2004 03 30.43959 14 12 19.18 +04 39 57.8 21.6 V 691 – Steward Observatory, Kitt Peak-Spacewatch MPS 272374
2004 03 30.46936 14 12 18.04 +04 40 07.9 20.9 V 691 – Steward Observatory, Kitt Peak-Spacewatch MPS 272374
2007 10 11.52773 02 26 31.13 -04 50 46.9 20.4 r 568 – Maunakea MPS 220884
2007 10 11.56084 02 26 29.79 -04 50 57.9 20.4 r 568 – Maunakea MPS 220884
2007 10 11.57712 02 26 29.13 -04 51 03.4 20.5 r 568 – Maunakea MPS 220884
2007 10 12.45758 02 25 54.88 -04 55 57.8 20.8 g 568 – Maunakea MPS 220884
2007 10 12.46967 02 25 54.37 -04 56 01.9 20.8 g 568 – Maunakea MPS 220884
2007 10 12.48176 02 25 53.87 -04 56 05.9 20.8 g 568 – Maunakea MPS 220884
2007 10 15.31308 02 23 58.48 -05 11 25.7 20.4 V 703 – Catalina Sky Survey MPS 223638
2007 10 15.32112 02 23 58.02 -05 11 28.0 20.2 V 703 – Catalina Sky Survey MPS 223638
2007 10 15.32918 02 23 57.76 -05 11 29.3 19.4 V 703 – Catalina Sky Survey MPS 223638
2007 10 15.33726 02 23 57.37 -05 11 32.1 19.5 V 703 – Catalina Sky Survey MPS 223638
2007 11 02.23912 02 10 11.53 -06 23 03.3 19.4 V 703 – Catalina Sky Survey MPS 224738
2007 11 02.24564 02 10 11.20 -06 23 02.0 19.0 V 703 – Catalina Sky Survey MPS 224738
2007 11 02.25214 02 10 10.95 -06 23 03.2 19.3 V 703 – Catalina Sky Survey MPS 224738
2007 11 02.25865 02 10 10.52 -06 23 04.2 19.5 V 703 – Catalina Sky Survey MPS 224738
2009 01 18.50761 10 58 45.99 +16 10 51.0   691 – Steward Observatory, Kitt Peak-Spacewatch MPS 272374
2009 01 18.52575 10 58 45.77 +16 10 59.0   691 – Steward Observatory, Kitt Peak-Spacewatch MPS 272374
2009 01 18.54390 10 58 45.56 +16 11 07.1   691 – Steward Observatory, Kitt Peak-Spacewatch MPS 272374
2009 01 26.74797 10 56 31.62 +17 17 19.6 18.9 R D29 – Purple Mountain Observatory, XuYi Station MPS 272374
2009 01 26.76235 10 56 31.25 +17 17 26.4 18.1 R D29 – Purple Mountain Observatory, XuYi Station MPS 272374
2009 01 26.77681 10 56 30.93 +17 17 34.4 18.8 R D29 – Purple Mountain Observatory, XuYi Station MPS 272374
2009 01 26.79116 10 56 30.48 +17 17 41.9 16.9 R D29 – Purple Mountain Observatory, XuYi Station MPS 272374
2009 01 29.38417 10 55 27.80 +17 40 01.7 19.8 V G96 – Mt. Lemmon Survey MPS 276323
2009 01 29.39100 10 55 27.58 +17 40 05.4 20.1 V G96 – Mt. Lemmon Survey MPS 276323
2009 01 29.39780 10 55 27.40 +17 40 08.6 20.1 V G96 – Mt. Lemmon Survey MPS 276323
2009 01 29.40457 10 55 27.22 +17 40 12.4 20.2 V G96 – Mt. Lemmon Survey MPS 276323
2009 03 02.30200 10 34 05.59 +22 06 57.6 19.7 V G96 – Mt. Lemmon Survey MPS 278592
2009 03 02.30931 10 34 05.23 +22 07 00.6 19.8 V G96 – Mt. Lemmon Survey MPS 278592
2009 03 02.31650 10 34 04.90 +22 07 03.6 19.8 V G96 – Mt. Lemmon Survey MPS 278592
2009 03 02.32388 10 34 04.54 +22 07 06.5 19.7 V G96 – Mt. Lemmon Survey MPS 278592
2009 03 03.38343 10 33 16.69 +22 14 00.5   291 – LPL/Spacewatch II MPS 278592
2009 03 03.38756 10 33 16.50 +22 14 02.0   291 – LPL/Spacewatch II MPS 278592
2009 03 03.39165 10 33 16.30 +22 14 03.5   291 – LPL/Spacewatch II MPS 278592
2010 02 15.191207 15 47 02.61 -07 28 43.2   C51 – WISE MPS 313045
2010 02 15.323512 15 47 07.32 -07 28 36.3   C51 – WISE MPS 313045
2010 02 15.455815 15 47 12.06 -07 28 29.2   C51 – WISE MPS 313045
2010 02 15.588247 15 47 16.61 -07 28 22.1   C51 – WISE MPS 313045
2010 02 15.654336 15 47 19.037 -07 28 16.90   C51 – WISE MPS 903933
2010 02 15.720551 15 47 21.05 -07 28 15.0   C51 – WISE MPS 313045
2010 02 15.786639 15 47 23.54 -07 28 12.8   C51 – WISE MPS 313045
2010 02 15.786767 15 47 23.47 -07 28 10.9   C51 – WISE MPS 371960
2010 02 15.852855 15 47 25.92 -07 28 07.4   C51 – WISE MPS 330753
2010 02 15.919071 15 47 28.18 -07 28 03.1   C51 – WISE MPS 330753
2010 02 16.05138 15 47 32.67 -07 27 57.3   C51 – WISE MPS 313045
2010 05 18.547047 15 26 36.941 -03 29 50.84 20.86 r F51 – Pan-STARRS 1, Haleakala MPS 337295
2010 05 18.558105 15 26 36.438 -03 29 49.96 21.27 r F51 – Pan-STARRS 1, Haleakala MPS 337295
2010 08 03.185880 15 06 23.222 -06 50 24.58   C51 – WISE MPS 903933
2010 08 03.318184 15 06 25.992 -06 51 05.26   C51 – WISE MPS 903933
2010 08 03.582664 15 06 31.944 -06 52 30.54   C51 – WISE MPS 903933
2010 08 03.582792 15 06 31.740 -06 52 29.24   C51 – WISE MPS 903933
2010 08 03.714969 15 06 34.704 -06 53 14.24   C51 – WISE MPS 903933
2010 08 04.310272 15 06 47.702 -06 56 22.20   C51 – WISE MPS 903933
2010 08 04.310399 15 06 47.909 -06 56 20.65   C51 – WISE MPS 903933
2013 11 28.29778 05 29 28.40 +10 59 47.0 18.7 R 926 – Tenagra II Observatory, Nogales MPS 489810
2013 11 28.31343 05 29 27.66 +10 59 48.8 18.8 R 926 – Tenagra II Observatory, Nogales MPS 489810
2013 11 28.33068 05 29 26.82 +10 59 51.0 18.7 R 926 – Tenagra II Observatory, Nogales MPS 489810
2013 11 29.53147 05 28 30.596 +11 02 12.70 19.2 w F51 – Pan-STARRS 1, Haleakala MPS 490889
2013 11 29.54557 05 28 29.903 +11 02 14.39 19.1 w F51 – Pan-STARRS 1, Haleakala MPS 490889
2013 11 29.55967 05 28 29.204 +11 02 16.08 19.1 w F51 – Pan-STARRS 1, Haleakala MPS 490890
2013 11 29.57387 05 28 28.510 +11 02 17.69 19.2 w F51 – Pan-STARRS 1, Haleakala MPS 490890
2013 12 01.62771 05 26 49.86 +11 06 43.1 18.9 R D29 – Purple Mountain Observatory, XuYi Station MPS 490890
2013 12 01.64362 05 26 49.03 +11 06 45.1 20.0 R D29 – Purple Mountain Observatory, XuYi Station MPS 490890
2013 12 01.65953 05 26 48.22 +11 06 47.6 19.4 R D29 – Purple Mountain Observatory, XuYi Station MPS 490890
2013 12 07.21302 05 22 05.24 +11 21 26.4 19.2 V 691 – Steward Observatory, Kitt Peak-Spacewatch MPS 491938
2013 12 07.23076 05 22 04.24 +11 21 28.0 19.5 V 691 – Steward Observatory, Kitt Peak-Spacewatch MPS 491938
2013 12 07.24850 05 22 03.32 +11 21 32.0 20.3 V 691 – Steward Observatory, Kitt Peak-Spacewatch MPS 491938
2013 12 07.67221 05 21 40.92 +11 22 47.3 19.9 R D29 – Purple Mountain Observatory, XuYi Station MPS 491938
2013 12 07.68911 05 21 39.92 +11 22 50.5 19.6 R D29 – Purple Mountain Observatory, XuYi Station MPS 491938
2013 12 13.18789 05 16 47.06 +11 41 20.2 18.6 V 703 – Catalina Sky Survey MPS 491938
2013 12 13.19243 05 16 46.78 +11 41 20.3 18.5 V 703 – Catalina Sky Survey MPS 491938
2013 12 13.19696 05 16 46.55 +11 41 22.7 18.3 V 703 – Catalina Sky Survey MPS 491938
2013 12 13.20149 05 16 46.30 +11 41 22.9 19.4 V 703 – Catalina Sky Survey MPS 491938
2013 12 23.23309 05 08 01.85 +12 24 06.6 19.3 V 703 – Catalina Sky Survey MPS 493289
2013 12 23.23812 05 08 01.43 +12 24 09.2 18.4 V 703 – Catalina Sky Survey MPS 493289
2013 12 23.24316 05 08 01.27 +12 24 10.3 18.4 V 703 – Catalina Sky Survey MPS 493289
2013 12 23.24820 05 08 01.07 +12 24 10.7 18.5 V 703 – Catalina Sky Survey MPS 493289
2014 01 01.16316 05 01 13.72 +13 10 35.5 19.1 V G96 – Mt. Lemmon Survey MPS 495116
2014 01 01.16826 05 01 13.51 +13 10 37.6 19.4 V G96 – Mt. Lemmon Survey MPS 495116
2014 01 01.17336 05 01 13.30 +13 10 39.3 19.1 V G96 – Mt. Lemmon Survey MPS 495116
